Flag for Germany Weather past 2 weeks in Hannover, Lower Saxony, Germany

Now
70 °F

Clear.


Feels Like: 70 °F
Forecast: 58 / 82 °F
Wind: 7 mph from Southeast

Location: Hannover

Current Time: Aug 2, 2014 at 12:37:06 AM

Latest Report: Aug 1, 2014 at 11:50 PM


Visibility: 10 mi

Pressure: 29.86 "Hg

Humidity: 60%

Dew point: 55 °F

Location of HannoverLocation

Historic Weather in Hannover — Graph

°F

Hannover temperature yesterday

Maximum temperature yesterday: 82 °F (at 3:50 PM)
Minimum temperature yesterday: 57 °F (at 3:50 AM)
Average temperature yesterday: 71 °F

Past Weeks' High & Low Weather Summary

 TemperatureHumidityPressure
High91 °F (Jul 19, 2:50 PM)100% (Jul 21, 3:20 AM)30.15 "Hg (Jul 21, 3:20 AM)
Low55 °F (Jul 24, 5:50 AM)26% (Jul 19, 2:20 PM)29.74 "Hg (Jul 29, 6:20 PM)
Average70 °F73%29.94 "Hg
* Reported Jul 17 11:20 PM — Aug 1 11:20 PM, Hannover, Weather by CustomWeather, © 2014

Note: Actual official high and low records may vary slightly from our data, if they occured in-between our weather recording intervals... More about our weather records

Advertising

Hannover weather history for previous 24 hours

 ConditionsComfort  
Time TempWeatherWind HumidityBarometerVisibility
11:20 PM
Aug 1
72 °FClear.8 mph57%29.86 "Hg10 mi
10:50 PM70 °FClear.8 mph60%29.83 "Hg10 mi
10:20 PM73 °FClear.7 mph53%29.83 "Hg10 mi
9:50 PM72 °FSunny.7 mph61%29.83 "Hg10 mi
9:20 PM72 °FSunny.7 mph61%29.83 "Hg10 mi
8:50 PM77 °FSunny.9 mph47%29.83 "Hg10 mi
8:20 PM79 °FSunny.10 mph45%29.83 "Hg10 mi
7:50 PM81 °FSunny.10 mph37%29.83 "Hg10 mi
7:20 PM81 °FPassing clouds.9 mph37%29.83 "HgN/A
6:50 PM81 °FSunny.8 mph37%29.83 "Hg10 mi
6:20 PM81 °FSunny.8 mph42%29.83 "Hg10 mi
5:50 PM81 °FPassing clouds.9 mph37%29.83 "HgN/A
5:20 PM82 °FPassing clouds.8 mph37%29.83 "HgN/A
4:50 PM81 °FPassing clouds.9 mph39%29.83 "HgN/A
4:20 PM81 °FSunny.12 mph39%29.86 "Hg10 mi
3:50 PM82 °FPassing clouds.7 mph37%29.86 "HgN/A
3:20 PM79 °FPassing clouds.12 mph39%29.86 "HgN/A
2:50 PM79 °FPassing clouds.12 mph45%29.86 "HgN/A
2:20 PM81 °FPassing clouds.13 mph39%29.86 "HgN/A
1:50 PM81 °FPassing clouds.12 mph39%29.86 "HgN/A
1:20 PM81 °FPassing clouds.12 mph45%29.86 "HgN/A
12:50 PM79 °FPassing clouds.10 mph42%29.89 "HgN/A
12:20 PM81 °FScattered clouds.9 mph39%29.89 "HgN/A
11:50 AM77 °FScattered clouds.8 mph47%29.89 "HgN/A
11:20 AM77 °FPassing clouds.9 mph51%29.89 "HgN/A
10:50 AM75 °FPassing clouds.9 mph54%29.89 "HgN/A
10:20 AM73 °FPassing clouds.8 mph57%29.92 "HgN/A
9:50 AM72 °FSunny.8 mph61%29.92 "Hg10 mi
9:20 AM70 °FSunny.7 mph64%29.92 "Hg10 mi
8:50 AM68 °FPassing clouds.7 mph69%29.92 "HgN/A
8:20 AM66 °FPassing clouds.6 mph68%29.92 "HgN/A
7:50 AM64 °FPassing clouds.5 mph73%29.92 "HgN/A
7:20 AM61 °FSunny.5 mph83%29.92 "Hg10 mi
6:50 AM57 °FSunny.5 mph88%29.92 "Hg10 mi
6:20 AM57 °FPassing clouds.3 mph88%29.92 "HgN/A
5:50 AM59 °FPassing clouds.3 mph88%29.92 "HgN/A
5:20 AM57 °FClear.3 mph88%29.92 "Hg10 mi
4:50 AM57 °FClear.5 mph88%29.92 "Hg10 mi
4:20 AM57 °FFog.6 mph88%29.95 "HgN/A
3:50 AM57 °FFog.6 mph88%29.95 "HgN/A
3:20 AM59 °FFog.5 mph88%29.95 "HgN/A
2:50 AM59 °FFog.5 mph88%29.95 "HgN/A
2:20 AM59 °FFog.3 mph88%29.95 "HgN/A
1:50 AM61 °FFog.5 mph83%29.95 "HgN/A
1:20 AM61 °FClear.3 mph83%29.95 "Hg10 mi
12:50 AM63 °FClear.5 mph77%29.95 "Hg10 mi
12:20 AM63 °FClear.2 mph77%29.95 "Hg10 mi
Weather by CustomWeather, © 2014

See weather overviewHow to use our weather pages